GW3296 Weather Reports


Display with metric or nautical units.
time (UTC)temp
F
wind
direction
speed
MPH
gust
MPH
rain 1hr
in
rain 24hr
in
rain mn
in
humidity
%
barometer
mb
20260906012437 86 55 2.0 2.0 0.00 0.00 0.00 75 1014.6
20260906011936 86 95 2.0 2.0 0.00 0.00 0.00 74 1014.4
20260906011432 86 304 0.0 2.0 0.00 0.00 0.00 74 1014.7
20260906010927 86 150 0.0 2.0 0.00 0.00 0.00 73 1014.4
20260906010422 86 142 0.0 2.0 0.00 0.00 0.00 73 1014.3
20260906005918 87 39 2.0 3.0 0.00 0.00 0.00 72 1014.3
20260906005418 87 37 2.0 4.0 0.00 0.00 0.00 71 1014.3
20260906004916 87 51 0.0 4.0 0.00 0.00 0.00 71 1014.4
20260906004411 87 351 1.0 4.0 0.00 0.00 0.00 70 1014.3
20260906003906 88 50 2.0 3.0 0.00 0.00 0.00 69 1014.0
20260906003401 88 15 2.0 2.0 0.00 0.00 0.00 68 1014.0
20260906002857 88 4 3.0 3.0 0.00 0.00 0.00 68 1013.9
20260906002356 89 342 3.0 3.0 0.00 0.00 0.00 67 1014.2
20260906001852 89 342 0.0 3.0 0.00 0.00 0.00 66 1013.9
20260906001347 89 56 1.0 4.0 0.00 0.00 0.00 65 1014.1
20260906000842 90 9 2.0 4.0 0.00 0.00 0.00 65 1014.3
20260906000342 90 342 3.0 4.0 0.00 0.00 0.00 64 1014.0
20260905235843 90 347 2.0 2.0 0.00 0.00 0.00 64 1014.2
20260905235337 91 59 2.0 4.0 0.00 0.00 0.00 63 1014.0
20260905234832 91 24 4.0 5.0 0.00 0.00 0.00 62 1014.0
20260905234328 92 52 1.0 4.0 0.00 0.00 0.00 61 1014.0
20260905233823 92 349 6.0 7.0 0.00 0.00 0.00 60 1014.0
20260905233318 92 52 8.0 8.0 0.00 0.00 0.00 60 1014.2
20260905232816 92 302 3.0 6.0 0.00 0.00 0.00 60 1014.2
20260905232313 92 62 3.0 3.0 0.00 0.00 0.00 60 1014.1
20260905231808 92 19 0.0 4.0 0.00 0.00 0.00 60 1014.4
20260905231303 92 357 3.0 6.0 0.00 0.00 0.00 59 1014.2
20260905230800 93 331 1.0 5.0 0.00 0.00 0.00 59 1014.2
20260905230257 93 0 2.0 6.0 0.00 0.00 0.00 57 1014.1
20260905225757 94 355 8.0 12.0 0.00 0.00 0.00 55 1014.1
20260905225252 94 2 6.0 9.0 0.00 0.00 0.00 54 1013.9
20260905224752 94 350 5.0 9.0 0.00 0.00 0.00 55 1014.0
20260905224247 94 324 6.0 9.0 0.00 0.00 0.00 54 1013.9
20260905223743 94 0 8.0 9.0 0.00 0.00 0.00 54 1014.0
20260905223240 94 344 6.0 11.0 0.00 0.00 0.00 52 1013.9
20260905222735 95 38 1.0 10.0 0.00 0.00 0.00 53 1014.0
20260905222234 95 0 4.0 8.0 0.00 0.00 0.00 52 1013.9
20260905221730 95 3 4.0 12.0 0.00 0.00 0.00 51 1014.1
20260905221227 95 359 6.0 7.0 0.00 0.00 0.00 52 1013.9
20260905220723 95 311 2.0 4.0 0.00 0.00 0.00 52 1013.8
20260905220219 95 342 4.0 9.0 0.00 0.00 0.00 52 1014.0
20260905215718 95 35 3.0 7.0 0.00 0.00 0.00 51 1013.8
20260905215214 95 349 2.0 5.0 0.00 0.00 0.00 51 1013.8
20260905214709 96 315 6.0 9.0 0.00 0.00 0.00 50 1013.8
20260905214204 96 329 5.0 6.0 0.00 0.00 0.00 50 1013.9
20260905213700 97 349 2.0 6.0 0.00 0.00 0.00 50 1013.9
20260905213155 95 341 2.0 6.0 0.00 0.00 0.00 52 1014.0
20260905212650 95 356 5.0 10.0 0.00 0.00 0.00 51 1014.0
20260905212150 96 309 4.0 8.0 0.00 0.00 0.00 51 1014.0
20260905211644 97 335 3.0 7.0 0.00 0.00 0.00 49 1014.0
20260905211140 97 263 3.0 10.0 0.00 0.00 0.00 49 1013.8
20260905210637 97 6 3.0 8.0 0.00 0.00 0.00 50 1013.8
20260905210137 96 255 3.0 7.0 0.00 0.00 0.00 50 1014.1
20260905205635 97 7 4.0 8.0 0.00 0.00 0.00 49 1014.2
20260905205130 96 318 2.0 5.0 0.00 0.00 0.00 50 1014.0
20260905204629 96 318 7.0 9.0 0.00 0.00 0.00 49 1014.1
20260905204125 96 77 2.0 8.0 0.00 0.00 0.00 50 1014.1
20260905203625 96 19 5.0 9.0 0.00 0.00 0.00 50 1014.2
20260905203120 96 314 8.0 9.0 0.00 0.00 0.00 49 1014.0
20260905202616 96 311 6.0 8.0 0.00 0.00 0.00 50 1014.2
20260905202111 95 269 1.0 7.0 0.00 0.00 0.00 51 1014.4
20260905201607 95 320 3.0 9.0 0.00 0.00 0.00 50 1014.4
20260905201106 96 333 4.0 11.0 0.00 0.00 0.00 50 1014.4
20260905200602 96 30 6.0 7.0 0.00 0.00 0.00 49 1014.4
20260905200056 96 15 5.0 9.0 0.00 0.00 0.00 48 1014.1
20260905195555 97 276 6.0 11.0 0.00 0.00 0.00 47 1014.2
20260905195051 97 293 7.0 12.0 0.00 0.00 0.00 47 1014.3
20260905194551 97 1 6.0 6.0 0.00 0.00 0.00 46 1014.2
20260905194050 97 326 4.0 9.0 0.00 0.00 0.00 46 1014.4
20260905193545 98 352 5.0 9.0 0.00 0.00 0.00 45 1014.4
20260905193041 97 311 4.0 10.0 0.00 0.00 0.00 43 1014.5
20260905192536 97 251 9.0 13.0 0.00 0.00 0.00 44 1014.7
20260905192032 97 35 2.0 13.0 0.00 0.00 0.00 44 1014.6
20260905191530 97 11 6.0 9.0 0.00 0.00 0.00 46 1014.7
20260905191030 97 272 3.0 7.0 0.00 0.00 0.00 44 1014.6
20260905190527 97 17 2.0 10.0 0.00 0.00 0.00 45 1014.5
20260905190022 97 273 6.0 7.0 0.00 0.00 0.00 47 1014.7
20260905185521 96 17 3.0 10.0 0.00 0.00 0.00 47 1014.6
20260905185020 97 6 1.0 7.0 0.00 0.00 0.00 46 1014.8
20260905184515 95 254 2.0 9.0 0.00 0.00 0.00 48 1014.9
20260905184014 95 317 4.0 8.0 0.00 0.00 0.00 48 1014.9
20260905183514 96 4 3.0 9.0 0.00 0.00 0.00 47 1015.0
20260905183009 97 214 5.0 11.0 0.00 0.00 0.00 46 1015.1
20260905182508 96 332 2.0 7.0 0.00 0.00 0.00 47 1014.9
20260905182003 96 276 11.0 11.0 0.00 0.00 0.00 47 1014.8
20260905181458 96 320 2.0 5.0 0.00 0.00 0.00 49 1015.1
20260905180957 96 314 5.0 7.0 0.00 0.00 0.00 47 1015.2
20260905180452 96 271 6.0 10.0 0.00 0.00 0.00 48 1015.2
20260905175947 95 314 1.0 6.0 0.00 0.00 0.00 47 1015.2
20260905175447 96 331 3.0 5.0 0.00 0.00 0.00 48 1015.2
20260905174942 95 271 3.0 11.0 0.00 0.00 0.00 47 1015.4
20260905174437 95 8 3.0 6.0 0.00 0.00 0.00 49 1015.3
20260905173933 95 299 2.0 9.0 0.00 0.00 0.00 49 1015.4
20260905173430 95 311 7.0 8.0 0.00 0.00 0.00 49 1015.4
20260905172925 96 320 4.0 5.0 0.00 0.00 0.00 48 1015.4
20260905172422 95 335 2.0 5.0 0.00 0.00 0.00 49 1015.5
20260905171918 94 343 0.0 9.0 0.00 0.00 0.00 50 1015.5
20260905171415 94 348 1.0 4.0 0.00 0.00 0.00 50 1015.5
20260905170911 94 323 9.0 9.0 0.00 0.00 0.00 51 1015.6
20260905170407 94 65 3.0 5.0 0.00 0.00 0.00 50 1015.7
20260905165906 94 340 4.0 6.0 0.00 0.00 0.00 51 1015.5
20260905165401 94 346 2.0 5.0 0.00 0.00 0.00 51 1015.6
20260905164856 94 1 4.0 6.0 0.00 0.00 0.00 51 1015.7
20260905164351 94 55 1.0 6.0 0.00 0.00 0.00 49 1015.7
20260905163846 94 288 2.0 2.0 0.00 0.00 0.00 53 1015.6
20260905163343 93 65 2.0 3.0 0.00 0.00 0.00 54 1015.7
20260905162838 93 55 2.0 4.0 0.00 0.00 0.00 53 1015.7
20260905162338 93 324 0.0 5.0 0.00 0.00 0.00 53 1015.6
20260905161832 93 320 2.0 6.0 0.00 0.00 0.00 53 1015.6
20260905161332 93 16 0.0 4.0 0.00 0.00 0.00 54 1015.5
20260905160830 93 279 1.0 5.0 0.00 0.00 0.00 55 1015.8
20260905160325 92 322 0.0 5.0 0.00 0.00 0.00 55 1015.9
20260905155819 93 1 2.0 3.0 0.00 0.00 0.00 54 1015.9
20260905155319 93 46 1.0 4.0 0.00 0.00 0.00 54 1016.0
20260905154813 91 24 5.0 5.0 0.00 0.00 0.00 54 1015.9
20260905154308 91 241 2.0 6.0 0.00 0.00 0.00 54 1015.9
20260905153804 91 277 4.0 6.0 0.00 0.00 0.00 54 1016.0
20260905153300 92 272 3.0 7.0 0.00 0.00 0.00 51 1015.6
20260905152800 91 311 3.0 3.0 0.00 0.00 0.00 54 1015.9
20260905152259 91 331 4.0 5.0 0.00 0.00 0.00 54 1015.6
20260905151754 90 284 2.0 3.0 0.00 0.00 0.00 56 1015.5
20260905151250 90 249 1.0 3.0 0.00 0.00 0.00 56 1015.6
20260905150750 90 260 2.0 4.0 0.00 0.00 0.00 54 1015.6
20260905150249 90 265 2.0 4.0 0.00 0.00 0.00 54 1015.5
20260905145747 90 157 0.0 2.0 0.00 0.00 0.00 56 1015.4
20260905145242 89 283 2.0 2.0 0.00 0.00 0.00 57 1015.4
20260905144740 89 247 3.0 4.0 0.00 0.00 0.00 56 1015.6
20260905144236 88 241 2.0 4.0 0.00 0.00 0.00 59 1015.6
20260905143735 88 197 0.0 2.0 0.00 0.00 0.00 60 1015.4
20260905143235 88 352 0.0 1.0 0.00 0.00 0.00 63 1015.7
20260905142733 87 13 0.0 1.0 0.00 0.00 0.00 65 1015.6
20260905142228 86 55 0.0 1.0 0.00 0.00 0.00 65 1015.7
20260905141724 86 62 0.0 1.0 0.00 0.00 0.00 64 1015.5
20260905141220 86 242 0.0 2.0 0.00 0.00 0.00 63 1015.7
20260905140715 87 212 1.0 1.0 0.00 0.00 0.00 63 1015.6
20260905140209 86 62 0.0 1.0 0.00 0.00 0.00 64 1015.7
20260905135703 85 329 0.0 1.0 0.00 0.00 0.00 66 1015.5
20260905135200 85 262 2.0 2.0 0.00 0.00 0.00 65 1015.7
20260905134659 85 291 1.0 2.0 0.00 0.00 0.00 65 1015.6
20260905134158 86 285 2.0 2.0 0.00 0.00 0.00 65 1015.8
20260905133653 86 294 2.0 4.0 0.00 0.00 0.00 65 1015.6
20260905133148 85 126 0.0 0.0 0.00 0.00 0.00 68 1015.7
20260905132647 84 142 0.0 0.0 0.00 0.00 0.00 68 1015.6
20260905132142 83 309 0.0 0.0 0.00 0.00 0.00 69 1015.7
20260905131637 83 322 0.0 0.0 0.00 0.00 0.00 70 1015.7
20260905131132 83 343 0.0 1.0 0.00 0.00 0.00 70 1015.6
20260905130627 82 180 0.0 0.0 0.00 0.00 0.00 70 1015.4
20260905130127 84 202 0.0 0.0 0.00 0.00 0.00 68 1015.4
20260905125626 85 333 0.0 0.0 0.00 0.00 0.00 65 1015.5
20260905125122 86 276 0.0 1.0 0.00 0.00 0.00 64 1015.4
20260905124619 83 309 0.0 2.0 0.00 0.00 0.00 69 1015.4
20260905124115 82 321 0.0 1.0 0.00 0.00 0.00 71 1015.5
20260905123610 83 173 0.0 1.0 0.00 0.00 0.00 69 1015.5
20260905123107 84 195 0.0 0.0 0.00 0.00 0.00 68 1015.6
20260905122607 82 243 0.0 0.0 0.00 0.00 0.00 72 1015.3
20260905122106 80 205 0.0 1.0 0.00 0.00 0.00 75 1015.1
20260905121601 78 45 0.0 0.0 0.00 0.00 0.00 79 1015.1
20260905121057 77 326 0.0 0.0 0.00 0.00 0.00 81 1015.2
20260905120555 76 5 0.0 0.0 0.00 0.00 0.00 82 1015.0
20260905120051 76 269 0.0 1.0 0.00 0.00 0.00 83 1015.2
20260905115550 75 15 0.0 0.0 0.00 0.00 0.00 84 1015.0
20260905115045 75 75 0.0 1.0 0.00 0.00 0.00 84 1015.1
20260905114544 75 221 0.0 0.0 0.00 0.00 0.00 84 1014.8
20260905114043 75 321 0.0 0.0 0.00 0.00 0.00 84 1014.9
20260905113538 75 255 0.0 0.0 0.00 0.00 0.00 83 1014.8
20260905113033 75 304 0.0 0.0 0.00 0.00 0.00 83 1014.6
20260905112529 75 37 0.0 0.0 0.00 0.00 0.00 83 1014.7
20260905112025 76 343 0.0 0.0 0.00 0.00 0.00 82 1014.8
20260905111524 76 333 0.0 0.0 0.00 0.00 0.00 81 1014.7
20260905111024 76 298 0.0 1.0 0.00 0.00 0.00 80 1014.8
20260905110523 76 125 0.0 0.0 0.00 0.00 0.00 81 1014.7
20260905110019 76 343 0.0 0.0 0.00 0.00 0.00 82 1014.6
20260905105513 76 343 0.0 0.0 0.00 0.00 0.00 82 1014.6
20260905105012 76 186 0.0 0.0 0.00 0.00 0.00 82 1014.8
20260905104509 75 157 0.0 0.0 0.00 0.00 0.00 83 1014.8
20260905104008 75 205 0.0 0.0 0.00 0.00 0.00 83 1014.5
20260905103503 76 340 0.0 1.0 0.00 0.00 0.00 82 1014.8
20260905102959 76 315 0.0 0.0 0.00 0.00 0.00 82 1014.8
20260905102455 76 320 0.0 0.0 0.00 0.00 0.00 81 1014.6
20260905101950 76 180 0.0 1.0 0.00 0.00 0.00 81 1014.6
20260905101449 77 137 0.0 1.0 0.00 0.00 0.00 80 1014.5
20260905100948 77 142 0.0 0.0 0.00 0.00 0.00 79 1014.8
20260905100444 77 310 0.0 1.0 0.00 0.00 0.00 79 1014.7
20260905095943 77 5 0.0 1.0 0.00 0.00 0.00 77 1014.7
20260905095444 78 142 0.0 1.0 0.00 0.00 0.00 77 1014.6
20260905094939 78 235 0.0 1.0 0.00 0.00 0.00 76 1014.7
20260905094434 78 152 0.0 1.0 0.00 0.00 0.00 77 1014.7
20260905093933 78 169 1.0 2.0 0.00 0.00 0.00 77 1014.7
20260905093429 78 235 0.0 1.0 0.00 0.00 0.00 75 1015.0
20260905092924 79 359 1.0 2.0 0.00 0.00 0.00 75 1014.9
20260905092419 79 326 0.0 1.0 0.00 0.00 0.00 73 1014.8
20260905091915 79 352 0.0 1.0 0.00 0.00 0.00 73 1014.7
20260905091415 79 245 0.0 1.0 0.00 0.00 0.00 73 1014.8
20260905090914 79 342 0.0 1.0 0.00 0.00 0.00 73 1014.7
20260905090409 79 315 0.0 2.0 0.00 0.00 0.00 73 1014.8
20260905085909 79 237 0.0 2.0 0.00 0.00 0.00 74 1015.0
20260905085408 79 153 1.0 1.0 0.00 0.00 0.00 74 1014.8
20260905084904 79 15 0.0 3.0 0.00 0.00 0.00 74 1015.0
20260905084403 79 10 0.0 3.0 0.00 0.00 0.00 74 1015.0
20260905083858 79 345 1.0 2.0 0.00 0.00 0.00 74 1015.1
20260905083354 79 281 2.0 3.0 0.00 0.00 0.00 75 1014.7
20260905082849 79 315 0.0 1.0 0.00 0.00 0.00 76 1015.0
20260905082345 79 310 0.0 1.0 0.00 0.00 0.00 76 1015.0
20260905081841 79 332 0.0 2.0 0.00 0.00 0.00 76 1015.1
20260905081336 79 338 1.0 1.0 0.00 0.00 0.00 75 1015.2
20260905080835 79 333 0.0 1.0 0.00 0.00 0.00 76 1015.1
20260905080335 79 134 0.0 2.0 0.00 0.00 0.00 76 1015.3
20260905075833 77 142 2.0 3.0 0.00 0.00 0.00 82 1015.4
20260905075328 77 230 0.0 0.0 0.00 0.00 0.00 85 1015.2
20260905074827 77 195 0.0 0.0 0.00 0.00 0.00 85 1015.3
20260905074323 77 195 0.0 0.0 0.00 0.00 0.00 84 1015.2
20260905073818 77 50 0.0 0.0 0.00 0.00 0.00 84 1015.3
20260905073313 77 50 0.0 0.0 0.00 0.00 0.00 83 1015.3
20260905072808 77 154 0.0 0.0 0.00 0.00 0.00 84 1015.2
20260905072305 77 194 0.0 0.0 0.00 0.00 0.00 83 1015.3
20260905071759 78 297 0.0 0.0 0.00 0.00 0.00 83 1015.3
20260905071255 78 32 0.0 0.0 0.00 0.00 0.00 83 1015.3
20260905070750 78 32 0.0 0.0 0.00 0.00 0.00 82 1015.3
20260905070247 78 32 0.0 0.0 0.00 0.00 0.00 82 1015.2
20260905065745 78 322 1.0 1.0 0.00 0.00 0.00 82 1015.1
20260905065244 79 195 0.0 0.0 0.00 0.00 0.00 81 1015.2
20260905064740 79 212 0.0 0.0 0.00 0.00 0.00 81 1015.1
20260905064235 79 333 0.0 0.0 0.00 0.00 0.00 80 1015.0
20260905063734 80 333 0.0 1.0 0.00 0.00 0.00 78 1015.2
20260905063230 80 315 1.0 1.0 0.00 0.00 0.00 76 1015.0
20260905062726 80 135 0.0 1.0 0.00 0.00 0.00 77 1015.0
20260905062225 80 260 0.0 0.0 0.00 0.00 0.00 77 1015.1
20260905061720 81 260 0.0 0.0 0.00 0.00 0.00 76 1015.1
20260905061215 81 315 0.0 0.0 0.00 0.00 0.00 75 1015.1
20260905060715 82 127 0.0 1.0 0.00 0.00 0.00 74 1015.3
20260905060212 82 324 0.0 1.0 0.00 0.00 0.00 73 1015.2
20260905055710 82 293 0.0 2.0 0.00 0.00 0.00 73 1015.2
20260905055205 81 150 2.0 2.0 0.00 0.00 0.00 75 1015.2
20260905054700 80 333 0.0 0.0 0.00 0.00 0.00 78 1015.1
20260905054156 81 257 0.0 0.0 0.00 0.00 0.00 79 1015.0
20260905053655 80 217 0.0 0.0 0.00 0.00 0.00 79 1015.2
20260905053150 81 66 0.0 0.0 0.00 0.00 0.00 79 1015.1
20260905052645 81 290 0.0 0.0 0.00 0.00 0.00 79 1015.1
20260905052140 81 309 1.0 2.0 0.00 0.00 0.00 78 1015.0
20260905051635 81 309 0.0 1.0 0.00 0.00 0.00 79 1015.1
20260905051132 80 156 0.0 0.0 0.00 0.00 0.00 81 1015.2
20260905050628 80 322 0.0 0.0 0.00 0.00 0.00 81 1015.3
20260905050125 80 322 0.0 0.0 0.00 0.00 0.00 81 1015.2
20260905045624 81 322 0.0 0.0 0.00 0.00 0.00 80 1015.2
20260905045120 81 284 0.0 0.0 0.00 0.00 0.00 80 1015.4
20260905044619 81 284 0.0 0.0 0.00 0.00 0.00 80 1015.2
20260905044120 81 284 0.0 0.0 0.00 0.00 0.00 80 1015.2
20260905043618 81 284 0.0 0.0 0.00 0.00 0.00 79 1015.1
20260905043114 81 284 0.0 1.0 0.00 0.00 0.00 79 1015.3
20260905042612 81 129 0.0 0.0 0.00 0.00 0.00 79 1015.4
20260905042108 82 322 0.0 0.0 0.00 0.00 0.00 79 1015.4
20260905041603 82 322 0.0 1.0 0.00 0.00 0.00 78 1015.4
20260905041059 82 304 0.0 2.0 0.00 0.00 0.00 77 1015.3
20260905040559 82 164 0.0 0.0 0.00 0.00 0.00 78 1015.4
20260905040057 82 309 0.0 0.0 0.00 0.00 0.00 78 1015.4
20260905035552 82 336 0.0 0.0 0.00 0.00 0.00 78 1015.5
20260905035049 82 336 0.0 0.0 0.00 0.00 0.00 77 1015.4
20260905034545 82 284 0.0 0.0 0.00 0.00 0.00 77 1015.4
20260905034039 82 315 0.0 0.0 0.00 0.00 0.00 77 1015.3
20260905033538 83 315 0.0 0.0 0.00 0.00 0.00 76 1015.2
20260905033034 83 129 0.0 1.0 0.00 0.00 0.00 76 1015.2
20260905032529 83 284 0.0 1.0 0.00 0.00 0.00 75 1015.2
20260905032024 83 293 1.0 1.0 0.00 0.00 0.00 74 1015.4
20260905031520 83 142 0.0 1.0 0.00 0.00 0.00 75 1015.3
20260905031019 82 230 0.0 0.0 0.00 0.00 0.00 78 1015.1
20260905030515 82 230 0.0 0.0 0.00 0.00 0.00 78 1015.2
20260905030015 83 230 0.0 0.0 0.00 0.00 0.00 77 1015.0
20260905025510 83 205 0.0 0.0 0.00 0.00 0.00 77 1015.0
20260905025006 83 15 0.0 0.0 0.00 0.00 0.00 77 1015.2
20260905024501 83 343 0.0 0.0 0.00 0.00 0.00 77 1014.8
20260905023956 83 322 0.0 0.0 0.00 0.00 0.00 76 1015.0
20260905023451 84 322 0.0 0.0 0.00 0.00 0.00 76 1015.1
20260905022950 84 322 0.0 0.0 0.00 0.00 0.00 75 1015.0
20260905022445 84 147 0.0 0.0 0.00 0.00 0.00 74 1014.9
20260905021941 84 153 0.0 1.0 0.00 0.00 0.00 74 1014.9
20260905021440 84 150 0.0 0.0 0.00 0.00 0.00 73 1014.9
20260905020936 84 150 0.0 0.0 0.00 0.00 0.00 73 1014.7
20260905020435 85 150 0.0 0.0 0.00 0.00 0.00 73 1014.7
20260905015935 85 150 0.0 0.0 0.00 0.00 0.00 71 1014.7
20260905015434 85 339 0.0 0.0 0.00 0.00 0.00 72 1014.7
20260905014933 85 339 0.0 0.0 0.00 0.00 0.00 71 1014.7
20260905014429 85 230 0.0 0.0 0.00 0.00 0.00 70 1014.4
20260905013924 86 230 0.0 0.0 0.00 0.00 0.00 70 1014.6
20260905013420 86 129 0.0 0.0 0.00 0.00 0.00 69 1014.4